Location: Dittelspoint
(48.7198°N, 10.7214°E)
Time: 05:40:53
(UTC+00:00)

Cosmos 1697 Rocket - Pass Details

Date: 09 April 2020
Orbit: 831 x 845 km, 71.0° (Epoch: 29 May)

Event Time Altitude Azimuth Distance (km) Brightness Sun altitude
Rises 21:06:23 0° 329° (NNW) 3,413 7.2 -26.3°
Reaches altitude 10° 21:08:51 10° 327° (NNW) 2,475 6.1 -26.5°
Maximum altitude 21:14:28 66° 247° (WSW) 923 2.8 -27.1°
Enters shadow 21:14:51 64° 223° (SW) 937 2.8 -27.1°
